IHI-SAT

Last updated on Fri Nov 18 2022 00:02:07 GMT+0000 (Coordinated Universal Time)

1 52147U 98067TJ 22321.25691849 .13773753 12434-4 62747-3 0 9996 2 52147 51.6098 274.2029 0003419 182.6515 177.4495 16.43346484 37304

Satellite not in orbit